Weather in Okunevka

Russia / Republic of Crimea     45°22′07″N   32°45′42″E
temp.,
°C
wind,
m/s
gust,
m/s
humid.,
%
clouds,
%
prec.,
mm/h
press.,
hPa
HPBL,
m
23 october, sat
sat2300:00+16sw5784100 0.0 1018240
03:00+16sw5686100 0.0 1017176
06:00+16ssw5686100 0.0 1016186
09:00+16sw5786100 0.0 1017173
12:00+17wsw5787100 0.0 1018162
15:00+16w4684100 0.0 1017145
18:00+16n5772100 0.0 1018196
21:00+15nne897176 0.0 1020409
24 october, sun
sun2400:00+14nne6778100 0.0 1021391
03:00+14nne6874100 0.0 1021443
06:00+13n9967100 0.1 1022700
09:00+13n5763100 1.1 1024881
12:00+12n101055100 0.0 10251014
15:00+12nnw10105256 0.0 10241317
18:00+12nnw910545 0.0 10261671
21:00+12n1095888 0.1 10281501
25 october, mon
mon2500:00+11n785731 0.0 10291543
03:00+10nnw775778 0.0 10291603
06:00+9n986651 0.0 10301134
09:00+9nne776122 0.1 10321364
12:00+9n77565 0.0 10321176
15:00+9nne66512 0.0 10321180
18:00+9nne66490 0.0 10321065
21:00+10ene66460 0.0 10321038
26 october, tue
tue2600:00+9ene66490 0.0 1032899
03:00+9ene66530 0.0 1032654
06:00+9ene77570 0.0 1032652
09:00+9e89600 0.0 1031623
12:00+10e77530 0.0 1031850
15:00+12e56420 0.0 10291201
18:00+13e87460 0.0 10281126
21:00+10e99620 0.0 1027548
27 october, wed
wed2700:00+9e76610 0.0 1027489
03:00+9ene43620 0.0 1026421
06:00+9ene33640 0.0 1025383
09:00+9e21660 0.0 1025350
12:00+9nne01640 0.0 1024345
15:00+10wnw22600 0.0 1023342
18:00+11nw22585 0.0 1023273
21:00+12nnw44625 0.0 1023307